Location: Benalto
(52.3088°N, 114.2787°W)
Time: 12:54:48
(UTC+00:00)

N. Korean satellite - Pass Details

Date: 07 December 2021
Orbit: 447 x 490 km, 97.3° (Epoch: 27 January)

Event Time Altitude Azimuth Distance (km) Brightness Sun altitude
Rises 12:45:55 0° 17° (NNE) 2,469 10.3 -24.2°
Reaches altitude 10° 12:48:00 10° 22° (NNE) 1,589 9.3 -23.9°
Maximum altitude 12:51:20 52° 100° (E) 565 7.1 -23.4°
Drops below altitude 10° 12:54:38 10° 178° (S) 1,574 9.2 -22.9°
Sets 12:56:41 0° 184° (S) 2,443 10.2 -22.6°
